FW1492 Weather Reports


time (UTC)temp
C
wind
direction
speed
KPH
gust
KPH
rain 1hr
cm
rain 24hr
cm
rain mn
cm
humidity
%
barometer
mb
20260905034543 19 28 0.0 8.0 0.00 0.03 0.03 84 1012.5
20260905033055 19 340 3.2 8.0 0.00 0.03 0.03 84 1012.5
20260905031544 19 296 3.2 8.0 0.00 0.03 0.03 84 1012.5
20260905030041 19 24 1.6 8.0 0.00 0.03 0.03 83 1012.6
20260905024541 20 349 1.6 8.0 0.00 0.03 0.03 83 1012.4
20260905023043 20 332 1.6 6.4 0.00 0.03 0.03 83 1012.4
20260905021539 20 18 1.6 6.4 0.00 0.03 0.03 82 1012.6
20260905020037 20 347 1.6 3.2 0.00 0.03 0.03 82 1012.6
20260905014536 20 10 1.6 6.4 0.00 0.03 0.03 81 1012.7
20260905013036 20 5 1.6 6.4 0.00 0.03 0.03 81 1012.6
20260905011536 20 281 1.6 4.8 0.00 0.03 0.03 81 1012.5
20260905010035 20 18 0.0 4.8 0.00 0.03 0.03 79 1012.5
20260905004535 20 346 1.6 6.4 0.00 0.03 0.03 79 1012.6
20260905003034 21 23 1.6 3.2 0.00 0.03 0.03 79 1012.5
20260905001532 21 18 1.6 4.8 0.00 0.03 0.03 79 1012.3
20260905000031 21 2 1.6 8.0 0.00 0.03 0.03 79 1012.1
20260904234530 21 293 1.6 11.3 0.00 0.03 0.03 78 1012.1
20260904233030 21 356 0.0 6.4 0.00 0.03 0.03 78 1012.1
20260904231535 22 359 3.2 8.0 0.00 0.03 0.03 77 1011.9
20260904230030 22 5 1.6 6.4 0.00 0.03 0.03 77 1012.1
20260904224529 22 323 1.6 8.0 0.00 0.03 0.03 77 1012.1
20260904223030 22 333 3.2 8.0 0.00 0.03 0.03 75 1012.1
20260904221528 23 323 1.6 6.4 0.00 0.03 0.03 75 1012.4
20260904220027 23 338 1.6 4.8 0.00 0.03 0.03 75 1012.3
20260904214539 23 334 0.0 8.0 0.00 0.03 0.03 74 1012.1
20260904213033 23 6 1.6 8.0 0.00 0.03 0.03 74 1012.0
20260904211526 24 293 1.6 6.4 0.00 0.03 0.03 74 1011.7
20260904210029 24 328 3.2 11.3 0.00 0.03 0.03 72 1011.7
20260904204526 23 326 4.8 9.7 0.00 0.03 0.03 73 1012.0
20260904203023 23 309 3.2 11.3 0.00 0.03 0.03 73 1012.3
20260904201522 24 21 3.2 14.5 0.00 0.03 0.03 72 1012.3
20260904200022 24 238 4.8 11.3 0.00 0.03 0.03 71 1012.5
20260904194521 23 313 3.2 12.9 0.00 0.03 0.03 73 1012.5
20260904193020 23 337 3.2 11.3 0.00 0.03 0.03 73 1012.5
20260904191519 24 314 3.2 11.3 0.00 0.03 0.03 74 1012.7
20260904190027 24 356 4.8 9.7 0.00 0.03 0.03 73 1012.7
20260904184518 24 335 1.6 9.7 0.00 0.03 0.03 72 1013.0
20260904183017 24 304 4.8 16.1 0.00 0.03 0.03 72 1013.0
20260904181516 23 317 3.2 19.3 0.00 0.03 0.03 73 1013.0
20260904180014 23 314 4.8 14.5 0.00 0.03 0.03 72 1013.0
20260904174523 23 304 4.8 17.7 0.00 0.03 0.03 74 1012.9
20260904173012 23 323 4.8 17.7 0.00 0.03 0.03 75 1012.9
20260904171518 23 299 6.4 17.7 0.00 0.03 0.03 72 1012.8
20260904170009 23 293 9.7 17.7 0.00 0.03 0.03 72 1012.9
20260904164508 23 1 8.0 20.9 0.00 0.03 0.03 73 1013.2
20260904163006 23 348 8.0 17.7 0.00 0.03 0.03 75 1013.2
20260904161504 23 327 6.4 19.3 0.00 0.03 0.03 75 1013.1
20260904160003 23 326 6.4 16.1 0.00 0.03 0.03 77 1013.1
20260904154502 23 22 4.8 19.3 0.00 0.03 0.03 80 1013.2
20260904153100 23 37 6.4 17.7 0.00 0.03 0.03 80 1013.3
20260904153003 23 320 6.4 17.7 0.00 0.03 0.03 80 1013.3
20260904151610 23 34 4.8 20.9 0.00 0.03 0.03 81 1013.3
20260904150119 22 343 3.2 12.9 0.00 0.03 0.03 84 1013.4
20260904144555 22 40 3.2 9.7 0.00 0.03 0.03 87 1013.4
20260904143052 22 340 4.8 14.5 0.00 0.03 0.03 88 1013.4
20260904141554 22 11 4.8 14.5 0.00 0.03 0.03 89 1013.3
20260904140050 22 30 1.6 11.3 0.00 0.03 0.03 90 1013.2
20260904134556 21 28 4.8 17.7 0.00 0.03 0.03 92 1013.2
20260904133048 21 320 1.6 9.7 0.00 0.03 0.03 94 1013.3
20260904131547 21 17 4.8 11.3 0.00 0.03 0.03 96 1013.3
20260904130046 20 327 3.2 14.5 0.00 0.03 0.03 97 1013.3
20260904124547 20 323 3.2 11.3 0.00 0.03 0.03 98 1013.3
20260904123045 20 349 1.6 9.7 0.00 0.03 0.03 99 1013.2
20260904121544 20 347 3.2 11.3 0.00 0.03 0.03 99 1013.4
20260904120043 20 321 1.6 14.5 0.00 0.03 0.03 100 1012.9
20260904114544 20 349 1.6 9.7 0.00 0.03 0.03 100 1013.0
20260904113041 20 23 1.6 8.0 0.00 0.03 0.03 100 1013.0
20260904111542 20 328 1.6 12.9 0.00 0.03 0.03 100 1012.8
20260904110041 20 29 3.2 12.9 0.00 0.03 0.03 100 1012.6
20260904104538 20 328 3.2 6.4 0.00 0.03 0.03 100 1012.7
20260904103036 20 41 3.2 8.0 0.00 0.03 0.03 100 1012.6
20260904101535 20 332 1.6 8.0 0.00 0.03 0.03 100 1012.5
20260904100038 20 79 1.6 6.4 0.00 0.03 0.03 100 1012.4
20260904094542 20 326 3.2 11.3 0.00 0.03 0.03 100 1012.2
20260904093033 20 11 1.6 4.8 0.00 0.03 0.03 100 1012.1
20260904091533 20 27 1.6 6.4 0.00 0.03 0.03 100 1012.0
20260904090031 20 347 1.6 8.0 0.00 0.03 0.03 99 1011.9
20260904084529 20 352 1.6 6.4 0.00 0.05 0.03 99 1012.0
20260904083036 21 359 1.6 6.4 0.00 0.05 0.03 99 1012.0
20260904081527 21 360 0.0 1.6 0.00 0.05 0.03 99 1012.0
20260904080026 21 351 0.0 1.6 0.00 0.05 0.03 99 1011.8
20260904074525 21 349 0.0 1.6 0.00 0.10 0.03 99 1011.5
20260904073026 21 347 0.0 3.2 0.00 0.10 0.03 99 1011.7
20260904071522 21 314 1.6 6.4 0.00 0.10 0.03 98 1011.7
20260904070021 21 331 3.2 8.0 0.00 0.10 0.03 98 1011.7
20260904064519 21 39 0.0 3.2 0.00 0.18 0.03 98 1011.8
20260904063023 21 356 0.0 0.0 0.03 0.18 0.03 98 1011.9
20260904061517 21 356 0.0 0.0 0.03 0.18 0.03 98 1012.3
20260904060013 21 356 0.0 0.0 0.03 0.18 0.03 97 1012.6
20260904054511 22 356 0.0 4.8 0.03 0.25 0.03 97 1012.6
20260904053011 22 4 0.0 4.8 0.00 0.23 0.00 97 1013.0
20260904051508 22 47 0.0 1.6 0.00 0.23 0.00 96 1013.0
20260904050006 22 18 0.0 3.2 0.00 0.23 0.00 95 1012.9
20260904044505 22 24 0.0 1.6 0.00 1.42 0.00 94 1012.7
20260904043103 22 314 0.0 0.0 0.00 1.42 0.00 94 1012.9
20260904041557 22 305 0.0 0.0 0.00 1.42 0.00 93 1013.0